USGS - science for a changing world

Kansas Water Science Center

Jump to content

Jump back to navigation

Current Streamflow Conditions

Welcome to the U.S. Geological Survey (USGS) Web page for the water resources of Kansas. Here you'll find information on Kansas's rivers and streams. You'll also find information about groundwater, water quality, and many other topics. The USGS operates the most extensive satellite network of stream-gaging stations in the state, many of which form the backbone of flood-warning systems.

The Kansas Water Science Center provides current ("real-time") stream stage in Kansas and streamflow, water-quality, and groundwater levels for over 200 sites.
The USGS provides National ("real-time") stream stage and streamflow, water-quality, and groundwater levels for over 7000 sites.

Of Current Interest

USGS Fact Sheet: Summary of hydrologic conditions in Kansas, water year 2016

Press Release: 20 Years Researching Harmful Algal Blooms Supports Sustainable Water Supply in Wichita

Scientific Investigations Report: Spatial variability of harmful algal blooms in Milford Lake, Kansas, July and August 2015.

Status of groundwater levels and storage volume in the Equus Beds aquifer near Wichita, Kansas, January 2016

Predicting cyanobacterial abundance, microcystin, and geosmin in a eutrophic drinking-water reservoir using a 14-year dataset.

USGS WaterAlert Service Turn Around Don't Drown

Now you can receive instant, customized updates about water conditions by subscribing to WaterAlert, a new service from the U.S. Geological Survey. WaterAlert allows you to receive daily or hourly updates about current conditions in rivers, lakes and groundwater when they match conditions of concern to you.

Kansas Earthquakes - Last 30 days

  1. 2.6 8km W of Belle Plaine, Kansas 2017-05-28 15:17:26 CDT
  2. 1.78 16km W of Caldwell, Kansas 2017-05-26 06:54:03 CDT
  3. 2.6 10km WNW of Belle Plaine, Kansas 2017-05-25 23:58:28 CDT
  4. 1.88 7km SE of Harper, Kansas 2017-05-25 12:32:46 CDT
  5. 1.7 7km SE of Harper, Kansas 2017-05-25 08:53:24 CDT
  6. 2.01 6km SSE of Harper, Kansas 2017-05-25 07:23:12 CDT
  7. 1.8 9km WSW of Wellington, Kansas 2017-05-25 04:16:08 CDT
  8. 1.74 15km ESE of Harper, Kansas 2017-05-23 14:53:32 CDT
  9. 2.2 6km SE of Harper, Kansas 2017-05-23 14:09:06 CDT
  10. 2.8 7km SE of Mankato, Kansas 2017-05-23 11:16:56 CDT
  11. 1.96 9km WSW of Wellington, Kansas 2017-05-23 09:20:46 CDT
  12. 2.26 10km SSE of Anthony, Kansas 2017-05-22 15:50:11 CDT
  13. 1.91 10km SSE of Anthony, Kansas 2017-05-22 14:01:58 CDT
  14. 1.58 7km SE of Harper, Kansas 2017-05-21 20:10:00 CDT
  15. 1.86 6km SE of Harper, Kansas 2017-05-21 19:15:34 CDT
  16. 3.4 8km SE of Mankato, Kansas 2017-05-20 23:54:24 CDT
  17. 3 7km SE of Harper, Kansas 2017-05-19 02:32:50 CDT
  18. 2.5 7km SSE of Harper, Kansas 2017-05-19 01:57:49 CDT
  19. 2.5 16km ESE of Caldwell, Kansas 2017-05-18 18:46:37 CDT
  20. 2.6 6km WNW of Harper, Kansas 2017-05-17 11:52:03 CDT
  21. 2.05 7km SE of Harper, Kansas 2017-05-13 17:46:49 CDT
  22. 1.9 7km SE of Harper, Kansas 2017-05-13 05:23:48 CDT
  23. 2.21 7km SE of Harper, Kansas 2017-05-13 02:28:04 CDT
  24. 1.74 10km SSE of Anthony, Kansas 2017-05-10 17:03:00 CDT
  25. 2.8 10km WSW of Conway Springs, Kansas 2017-05-10 05:52:28 CDT
  26. 3.3 27km SSW of Anthony, Kansas 2017-05-07 16:08:21 CDT
  27. 1.83 9km SSE of Anthony, Kansas 2017-05-07 16:01:28 CDT
  28. 2.17 14km N of Caldwell, Kansas 2017-05-05 01:18:13 CDT
  29. 3.5 14km ESE of Harper, Kansas 2017-05-04 18:36:48 CDT
  30. 2.22 19km SE of Anthony, Kansas 2017-04-30 23:37:37 CDT
  31. 2.3 19km E of Anthony, Kansas 2017-04-29 17:25:52 CDT
  32. 1.88 15km ESE of Harper, Kansas 2017-04-28 22:57:03 CDT
  33. 2.02 20km W of Caldwell, Kansas 2017-04-28 22:48:15 CDT

Highlighted Publications

The Kansas Water Science Center produces publications about water resources.   Search our publications

07188000: Flow=10000cfs,Stage=11.90ft,Floodstage=20ft,2017-05-28 15:00,>90,Spring River near Quapaw, OK 07186000: Flow=4120cfs,Stage=7.05ft,Floodstage=19ft,2017-05-28 15:30,>90,Spring River near Waco, MO 07184000: Flow=1120cfs,Stage=7.17ft,Floodstage=12ft,2017-05-28 15:45,>90,LIGHTNING C NR MCCUNE, KS 07143330: Flow=1660cfs,Stage=5.50ft,Floodstage=10ft,2017-05-28 15:30,>90,ARKANSAS R NR HUTCHINSON, KS 06915000: Flow=504cfs,Stage=4.77ft,2017-05-28 15:30,>90,BIG BULL C NR HILLSDALE, KS 06889000: Flow=27800cfs,Stage=15.17ft,Floodstage=26ft,2017-05-28 15:30,>90,KANSAS R AT TOPEKA, KS 06876900: Flow=3560cfs,Stage=16.86ft,Floodstage=24ft,2017-05-28 15:30,>90,SOLOMON R AT NILES, KS 06876700: Flow=1120cfs,Stage=15.84ft,Floodstage=18ft,2017-05-28 15:45,>90,SALT C NR ADA, KS 06876000: Flow=1700cfs,Stage=10.66ft,2017-05-28 15:45,>90,SOLOMON R AT BELOIT, KS 06875900: Flow=1440cfs,Stage=13.70ft,Floodstage=21ft,2017-05-28 15:30,>90,SOLOMON R NR GLEN ELDER, KS 06874000: Flow=1120cfs,Stage=11.56ft,Floodstage=14ft,2017-05-28 15:30,>90,SF SOLOMON R AT OSBORNE, KS 06873460: Flow=752cfs,Stage=10.38ft,Floodstage=12ft,2017-05-28 15:45,>90,SF SOLOMON R AT WOODSTON, KS 06873000: Flow=341cfs,Stage=4.36ft,Floodstage=8.5ft,2017-05-28 15:15,>90,SF SOLOMON R AB WEBSTER RE, KS 06869500: Flow=2450cfs,Stage=22.70ft,Floodstage=25ft,2017-05-28 15:30,>90,SALINE R AT TESCOTT, KS 06868200: Flow=723cfs,Stage=9.65ft,2017-05-28 15:45,>90,SALINE R AT WILSON DAM, KS 06867000: Flow=1060cfs,Stage=10.15ft,Floodstage=18ft,2017-05-28 15:30,>90,SALINE R NR RUSSELL, KS 06866000: Flow=1650cfs,Stage=13.81ft,Floodstage=21ft,2017-05-28 15:30,>90,SMOKY HILL R AT LINDSBORG, KS 06864500: Flow=1970cfs,Stage=7.60ft,Floodstage=20ft,2017-05-28 15:30,>90,SMOKY HILL R AT ELLSWORTH, KS 06863500: Flow=110cfs,Stage=7.34ft,Floodstage=26ft,2017-05-28 15:30,>90,BIG C NR HAYS, KS 06862700: Flow=59cfs,Stage=4.91ft,2017-05-28 15:30,>90,SMOKY HILL R NR SCHOENCHEN, KS 06857100: Flow=7140cfs,Stage=13.52ft,2017-05-28 15:30,>90,REPUBLICAN R AT JUNCTION CITY, KS 07156900: Flow=20.4cfs,Stage=2.26ft,Floodstage=5ft,2017-05-28 15:00,<10,Cimarron River near Forgan, OK 07137000: Flow=0.00cfs,Stage=9.15ft,2017-05-28 15:45,<10,FRONTIER DITCH NR COOLIDGE, KS 07185000: Flow=9460cfs,Stage=8.59ft,Floodstage=15ft,2017-05-28 15:30,76-90,Neosho River near Commerce, OK 07183500: Flow=7650cfs,Stage=12.74ft,Floodstage=21ft,2017-05-28 15:00,76-90,NEOSHO R NR PARSONS, KS 07183000: Flow=7720cfs,Stage=9.88ft,Floodstage=15ft,2017-05-28 15:00,76-90,NEOSHO R NR IOLA, KS 07182510: Flow=6850cfs,Stage=13.47ft,Floodstage=27ft,2017-05-28 15:15,76-90,NEOSHO R AT BURLINGTON, KS 07180400: Flow=566cfs,Stage=4.40ft,Floodstage=22ft,2017-05-28 15:15,76-90,COTTONWOOD R NR FLORENCE, KS 07179795: Flow=346cfs,Stage=6.62ft,2017-05-28 15:30,76-90,N COTTONWOOD R BL MARION LK, KS 07179500: Flow=361cfs,Stage=9.51ft,2017-05-28 16:00,76-90,NEOSHO R AT COUNCIL GROVE, KS 07166500: Flow=2020cfs,Stage=6.84ft,Floodstage=19ft,2017-05-28 15:45,76-90,VERDIGRIS R NR ALTOONA, KS 07146500: Flow=5190cfs,Stage=6.73ft,Floodstage=11ft,2017-05-28 16:00,76-90,ARKANSAS R AT ARKANSAS CITY, KS 07145500: Flow=915cfs,Stage=4.77ft,Floodstage=17ft,2017-05-28 16:00,76-90,NINNESCAH R NR PECK, KS 07144550: Flow=2330cfs,Stage=3.77ft,Floodstage=12ft,2017-05-28 16:00,76-90,ARKANSAS R AT DERBY, KS 07144300: Flow=2440cfs,Stage=6.36ft,2017-05-28 15:45,76-90,ARKANSAS R AT WICHITA, KS 07142300: Flow=41cfs,Stage=5.11ft,Floodstage=9ft,2017-05-28 15:00,76-90,RATTLESNAKE C NR MACKSVILLE, KS 07141780: Flow=24cfs,Stage=7.75ft,Floodstage=29ft,2017-05-28 15:15,76-90,WALNUT C AT NEKOMA, KS 07141300: Flow=474cfs,Stage=3.67ft,Floodstage=12ft,2017-05-28 15:30,76-90,ARKANSAS R AT GREAT BEND, KS 07141200: Flow=67cfs,Stage=10.19ft,Floodstage=31ft,2017-05-28 15:30,76-90,PAWNEE R AT ROZEL, KS 07140850: Flow=1.3cfs,Stage=2.67ft,Floodstage=30ft,2017-05-28 15:00,76-90,PAWNEE R NR BURDETT, KS 06912500: Flow=409cfs,Stage=4.81ft,2017-05-28 15:45,76-90,HUNDRED AND TEN MILE C NR QUENEMO, KS 06911000: Flow=478cfs,Stage=5.16ft,2017-05-28 15:45,76-90,MARAIS DES CYGNES R AT MELVERN, KS 06893500: Flow=227cfs,Stage=5.21ft,Floodstage=34ft,2017-05-28 15:45,76-90,Blue River at Kansas City, MO 06893000: Flow=120000cfs,Stage=21.04ft,Floodstage=32ft,2017-05-28 15:30,76-90,Missouri River at Kansas City, MO 06892350: Flow=30400cfs,Stage=13.12ft,Floodstage=26ft,2017-05-28 15:45,76-90,KANSAS R AT DESOTO, KS 06892000: Flow=440cfs,Stage=5.06ft,Floodstage=23ft,2017-05-28 15:30,76-90,STRANGER C NR TONGANOXIE, KS 06891000: Flow=30300cfs,Stage=10.73ft,Floodstage=17ft,2017-05-28 15:30,76-90,KANSAS R AT LECOMPTON, KS 06890100: Flow=293cfs,Stage=4.07ft,Floodstage=27ft,2017-05-28 15:45,76-90,DELAWARE R NR MUSCOTAH, KS 06889500: Flow=458cfs,Stage=2.47ft,Floodstage=29ft,2017-05-28 16:00,76-90,SOLDIER C NR TOPEKA, KS 06889200: Flow=189cfs,Stage=8.53ft,Floodstage=26ft,2017-05-28 15:30,76-90,SOLDIER C NR DELIA, KS 06888350: Flow=25900cfs,Stage=13.65ft,Floodstage=20ft,2017-05-28 15:30,76-90,KANSAS R NR BELVUE, KS 06888000: Flow=156cfs,Stage=4.80ft,2017-05-28 15:45,76-90,VERMILLION C NR WAMEGO, KS 06887000: Flow=10300cfs,Stage=10.62ft,Floodstage=19ft,2017-05-28 15:00,76-90,BIG BLUE R NR MANHATTAN, KS 06885500: Flow=286cfs,Stage=5.19ft,Floodstage=19ft,2017-05-28 15:30,76-90,BLACK VERMILLION R NR FRANKFORT, KS 06884400: Flow=1390cfs,Stage=6.26ft,Floodstage=21ft,2017-05-28 15:30,76-90,L BLUE R NR BARNES, KS 06884200: Flow=245cfs,Stage=4.04ft,Floodstage=18ft,2017-05-28 15:45,76-90,MILL C AT WASHINGTON, KS 06879100: Flow=16000cfs,Stage=13.95ft,Floodstage=21ft,2017-05-28 15:30,76-90,KANSAS R AT FORT RILEY, KS 06878000: Flow=293cfs,Stage=7.48ft,Floodstage=19ft,2017-05-28 15:45,76-90,CHAPMAN C NR CHAPMAN, KS 06877600: Flow=6880cfs,Stage=17.94ft,Floodstage=26ft,2017-05-28 15:45,76-90,SMOKY HILL R AT ENTERPRISE, KS 06872500: Flow=188cfs,Stage=5.45ft,Floodstage=15ft,2017-05-28 15:30,76-90,NF SOLOMON R AT PORTIS, KS 06871500: Flow=29cfs,Stage=3.97ft,Floodstage=9ft,2017-05-28 16:00,76-90,BOW C NR STOCKTON, KS 06871000: Flow=67cfs,Stage=4.05ft,Floodstage=11ft,2017-05-28 15:30,76-90,NF SOLOMON R AT GLADE, KS 06866500: Flow=1420cfs,Stage=10.24ft,Floodstage=20ft,2017-05-28 15:45,76-90,SMOKY HILL R NR MENTOR, KS 06865500: Flow=1650cfs,Stage=9.58ft,2017-05-28 15:30,76-90,SMOKY HILL R NR LANGLEY, KS 06864000: Flow=418cfs,Stage=6.33ft,Floodstage=18ft,2017-05-28 15:30,76-90,SMOKY HILL R NR RUSSELL, KS 06862850: Flow=24cfs,Stage=2.91ft,Floodstage=11ft,2017-05-28 15:00,76-90,SMOKY HILL R BL SCHOENCHEN, KS 06856600: Flow=2960cfs,Stage=11.56ft,Floodstage=15ft,2017-05-28 15:45,76-90,REPUBLICAN R AT CLAY CENTER, KS 06856000: Flow=1760cfs,Stage=8.01ft,Floodstage=15ft,2017-05-28 15:30,76-90,REPUBLICAN R AT CONCORDIA, KS 06853800: Flow=65cfs,Stage=3.11ft,Floodstage=16ft,2017-05-28 15:45,76-90,WHITE ROCK C NR BURR OAK, KS 06847900: Flow=13cfs,Stage=3.89ft,Floodstage=11ft,2017-05-28 15:45,76-90,PRAIRIE DOG C AB KEITH SEBELIUS LAKE, KS 06818000: Flow=83300cfs,Stage=15.81ft,Floodstage=17ft,2017-05-28 15:30,76-90,Missouri River at St. Joseph, MO 06814000: Flow=198cfs,Stage=2.87ft,Floodstage=21ft,2017-05-28 15:45,76-90,TURKEY C NR SENECA, KS 06813500: Flow=84200cfs,Stage=16.42ft,Floodstage=17ft,2017-05-28 15:30,76-90,Missouri River at Rulo, NE 07144910: Flow=6.9cfs,Stage=2.57ft,Floodstage=9ft,2017-05-28 16:00,10-24,SF NINNESCAH R NR PRATT, KS 06860000: Flow=0.62cfs,Stage=4.11ft,Floodstage=9ft,2017-05-28 15:30,10-24,SMOKY HILL R AT ELKADER, KS 06827500: Flow=13.3cfs,Stage=1.69ft,Floodstage=9ft,2017-05-28 14:30,10-24,South Fork Republican River near Benkelman, Nebr. 06824000: Flow=6.80cfs,Stage=0.58ft,2017-05-28 14:45,10-24,Rock Creek at Parks, Nebr. 06821500: Flow=3.59cfs,Stage=6.00ft,Floodstage=12ft,2017-05-28 14:30,10-24,Arikaree River at Haigler, Nebr. 07182250: Flow=1210cfs,Stage=7.92ft,Floodstage=32ft,2017-05-28 16:00,25-75,COTTONWOOD R NR PLYMOUTH, KS 07180500: Flow=40cfs,Stage=4.58ft,2017-05-28 15:15,25-75,CEDAR C NR CEDAR POINT, KS 07179730: Flow=568cfs,Stage=5.58ft,Floodstage=26ft,2017-05-28 15:15,25-75,NEOSHO R NR AMERICUS, KS 07172000: Flow=146cfs,Stage=2.05ft,2017-05-28 16:00,25-75,CANEY R NR ELGIN, KS 07170500: Flow=5450cfs,Stage=11.90ft,Floodstage=30ft,2017-05-28 16:00,25-75,VERDIGRIS R AT INDEPENDENCE, KS 07169800: Flow=43cfs,Stage=3.11ft,2017-05-28 15:00,25-75,ELK R AT ELK FALLS, KS 07169500: Flow=564cfs,Stage=4.91ft,Floodstage=17ft,2017-05-28 15:00,25-75,FALL R AT FREDONIA, KS 07167500: Flow=21cfs,Stage=2.04ft,2017-05-28 15:15,25-75,OTTER C AT CLIMAX, KS 07157500: Flow=15cfs,Stage=2.98ft,Floodstage=6.5ft,2017-05-28 15:30,25-75,CROOKED C NR ENGLEWOOD, KS 07151500: Flow=255cfs,Stage=2.69ft,Floodstage=10ft,2017-05-28 16:00,25-75,CHIKASKIA R NR CORBIN, KS 07149000: Flow=116cfs,Stage=1.04ft,Floodstage=10ft,2017-05-28 15:30,25-75,MEDICINE LODGE R NR KIOWA, KS 07147800: Flow=937cfs,Stage=3.12ft,Floodstage=18ft,2017-05-28 16:00,25-75,WALNUT R AT WINFIELD, KS 07147070: Flow=98cfs,Stage=2.40ft,2017-05-28 15:30,25-75,WHITEWATER R AT TOWANDA, KS 07145700: Flow=24cfs,Stage=4.22ft,Floodstage=19ft,2017-05-28 16:00,25-75,SLATE C AT WELLINGTON, KS 07145200: Flow=196cfs,Stage=4.09ft,Floodstage=8ft,2017-05-28 16:00,25-75,SF NINNESCAH R NR MURDOCK, KS 07144780: Flow=119cfs,Stage=6.66ft,2017-05-28 15:30,25-75,NF NINNESCAH R AB CHENEY RE, KS 07144200: Flow=226cfs,Stage=2.34ft,2017-05-28 15:00,25-75,L ARKANSAS R AT VALLEY CENTER, KS 07143665: Flow=76cfs,Stage=1.51ft,Floodstage=22ft,2017-05-28 15:15,25-75,L ARKANSAS R AT ALTA MILLS, KS 07143300: Flow=70cfs,Stage=6.45ft,Floodstage=18ft,2017-05-28 15:30,25-75,COW C NR LYONS, KS 07142575: Flow=30cfs,Stage=12.45ft,Floodstage=17ft,2017-05-28 15:30,25-75,RATTLESNAKE C NR ZENITH, KS 07141900: Flow=32cfs,Stage=4.36ft,Floodstage=24ft,2017-05-28 15:45,25-75,WALNUT C AT ALBERT, KS 07139000: Flow=14cfs,Stage=5.81ft,Floodstage=10ft,2017-05-28 15:30,25-75,ARKANSAS R AT GARDEN CITY, KS 07138000: Flow=159cfs,Stage=4.69ft,Floodstage=10ft,2017-05-28 15:15,25-75,ARKANSAS R AT SYRACUSE, KS 07137500: Flow=136cfs,Stage=3.16ft,Floodstage=8ft,2017-05-28 15:45,25-75,ARKANSAS R NR COOLIDGE, KS 06917500: Flow=69cfs,Stage=8.17ft,Floodstage=38ft,2017-05-28 15:30,25-75,MARMATON R NR FORT SCOTT, KS 06917000: Flow=46cfs,Stage=3.71ft,Floodstage=22ft,2017-05-28 15:15,25-75,L OSAGE R AT FULTON, KS 06916600: Flow=3530cfs,Stage=10.01ft,Floodstage=27ft,2017-05-28 15:45,25-75,MARAIS DES CYGNES R NR KS-MO ST LINE, KS 06915800: Flow=3500cfs,Stage=9.48ft,Floodstage=25ft,2017-05-28 15:15,25-75,MARAIS DES CYGNES R AT LA CYGNE, KS 06913500: Flow=1280cfs,Stage=8.42ft,Floodstage=31ft,2017-05-28 15:30,25-75,MARAIS DES CYGNES R NR OTTAWA, KS 06913000: Flow=1130cfs,Stage=5.42ft,Floodstage=20ft,2017-05-28 15:15,25-75,MARAIS DES CYGNES R NR POMONA, KS 06911900: Flow=26cfs,Stage=8.11ft,Floodstage=19ft,2017-05-28 15:00,25-75,DRAGOON C NR BURLINGAME, KS 06910800: Flow=43cfs,Stage=2.70ft,Floodstage=19ft,2017-05-28 15:45,25-75,MARAIS DES CYGNES R NR READING, KS 06893300: Flow=35cfs,Stage=5.94ft,Floodstage=14ft,2017-05-28 15:15,25-75,INDIAN C AT OVERLAND PARK, KS 06893080: Flow=43cfs,Stage=4.31ft,Floodstage=16ft,2017-05-28 15:45,25-75,BLUE R NR STANLEY, KS 06891500: Flow=38cfs,Stage=4.73ft,Floodstage=23ft,2017-05-28 15:45,25-75,WAKARUSA R NR LAWRENCE, KS 06888500: Flow=261cfs,Stage=4.07ft,Floodstage=21ft,2017-05-28 15:45,25-75,MILL C NR PAXICO, KS 06884025: Flow=758cfs,Stage=3.38ft,Floodstage=19ft,2017-05-28 16:00,25-75,Little Blue River at Hollenberg, KS 06882510: Flow=1800cfs,Stage=15.06ft,Floodstage=35ft,2017-05-28 15:30,25-75,BIG BLUE R AT MARYSVILLE, KS 06882000: Flow=1550cfs,Stage=6.15ft,Floodstage=20ft,2017-05-28 15:00,25-75,Big Blue River at Barneston, Nebr. 06879650: Flow=0.91cfs,Stage=3.43ft,2017-05-28 15:45,25-75,KINGS C NR MANHATTAN, KS 06861000: Flow=12cfs,Stage=1.08ft,Floodstage=7ft,2017-05-28 15:30,25-75,SMOKY HILL R NR ARNOLD, KS 06854500: Flow=842cfs,Stage=2.99ft,Floodstage=10ft,2017-05-28 15:15,25-75,REPUBLICAN R AT SCANDIA, KS 06853500: Flow=324cfs,Stage=3.16ft,Floodstage=11ft,2017-05-28 15:30,25-75,REPUBLICAN R NR HARDY, NE 06852500: Flow=15.2cfs,Stage=0.45ft,2017-05-28 15:15,25-75,Courtland Canal at Nebraska-Kansas Stateline 06848500: Flow=5.0cfs,Stage=2.05ft,Floodstage=21ft,2017-05-28 15:30,25-75,PRAIRIE DOG C NR WOODRUFF, KS 06823500: Flow=3.24cfs,Stage=1.10ft,Floodstage=11ft,2017-05-28 14:45,25-75,Buffalo Creek near Haigler, Nebr. 06815000: Flow=904cfs,Stage=6.27ft,Floodstage=27ft,2017-05-28 15:45,25-75,Big Nemaha River at Falls City, Nebr. 385520094420000: Flow=15cfs,2013-07-17 23:45,Not ranked,INDIAN C AT COLLEGE BLVD, JOHNSON CO, KS 375350097262800: Stage=6.18ft,2017-05-28 15:00,Not ranked,L ARKANSAS R UPSTREAM OF ASR FAC NR SEDGWICK, KS 07187600: Flow=8760cfs,Stage=6.29ft,Floodstage=14ft,2017-05-28 15:30,Not ranked,SPRING R NR BAXTER SPRINGS, KS 07186055: Flow=1630cfs,Stage=10.88ft,2017-05-28 15:45,Not ranked,COW C NR SCAMMON, KS 07185090: Flow=63.8cfs,Stage=9.09ft,2017-05-28 15:15,Not ranked,Tar Creek near Commerce, OK 07184500: Flow=59cfs,Stage=6.54ft,2017-05-28 15:00,Not ranked,LABETTE C NR OSWEGO, KS 07183300: Stage=16.91ft,Floodstage=29ft,2017-05-28 15:15,Not ranked,NEOSHO R NR ERIE, KS 07182395: Stage=8.80ft,2017-05-28 16:00,Not ranked,NEOSHO R AT HARTFORD, KS 07182390: Flow=2250cfs,Stage=9.56ft,Floodstage=22ft,2017-05-28 15:30,Not ranked,NEOSHO R AT NEOSHO RAPIDS, KS 07182260: Flow=1440cfs,Stage=5.60ft,Floodstage=20ft,2017-05-28 15:30,Not ranked,COTTONWOOD R AT EMPORIA, KS 07182200: Flow=94cfs,Stage=7.49ft,2017-05-28 15:30,Not ranked,SF COTTONWOOD R NR BAZAAR, KS 07180200: Stage=6.52ft,2017-05-28 15:30,Not ranked,COTTONWOOD R AT MARION, KS 07179785: Flow=39cfs,Stage=10.28ft,2017-05-28 15:30,Not ranked,NF COTTONWOOD R NR DURHAM, KS 07179750: Flow=592cfs,Stage=5.27ft,2017-05-28 15:30,Not ranked,NEOSHO R AT BURLINGAME RD NR EMPORIA, KS 07179710: Stage=13.65ft,2017-05-28 15:00,Not ranked,NEOSHO R NR DUNLAP, KS 07179700: Stage=10.33ft,2017-05-28 15:15:00,Not ranked,Back Water,ROCK C NR DUNLAP, KS 07179300: Flow=20cfs,Stage=8.01ft,2017-05-28 15:45,Not ranked,NEOSHO R NR PARKERVILLE, KS 07170990: Flow=5820cfs,Stage=8.80ft,2017-05-28 15:45,Not ranked,VERDIGRIS R AT COFFEYVILLE, KS 07170700: Stage=3.23ft,2017-05-28 15:00,Not ranked,BIG HILL C NR CHERRYVALE, KS 07165750: Flow=103cfs,Stage=7.62ft,2017-05-28 16:00,Not ranked,VERDIGRIS R NR VIRGIL, KS 07157940: Flow=36cfs,Stage=6.42ft,2017-05-28 15:00,Not ranked,BLUFF C NR BUTTERMILK, KS 07157740: Flow=71cfs,Stage=8.53ft,2017-05-28 15:15,Not ranked,CIMARRON R NR BUTTERMILK, KS 07148111: Flow=209cfs,Stage=5.20ft,2017-05-28 15:30,Not ranked,GROUSE C NR SILVERDALE, KS 07147900: Stage=5.97ft,Floodstage=18ft,2017-05-28 15:15,Not ranked,WALNUT R AT ARKANSAS CITY, KS 07147190: Stage=4.52ft,Floodstage=21ft,2017-05-28 15:15,Not ranked,WHITEWATER R AT AUGUSTA, KS 07146800: Flow=31cfs,Stage=6.03ft,Floodstage=21ft,2017-05-28 15:00,Not ranked,WB WALNUT R NR EL DORADO, KS 07145600: Flow=4430cfs,Stage=10.75ft,Floodstage=17ft,2017-05-28 15:45,Not ranked,ARKANSAS R ON HWY 160 AT OXFORD, KS 07144795: Flow=0.43cfs,Stage=1.23ft,2015-11-12 10:00,Not ranked,NF NINNESCAH R AT CHENEY DAM, KS 07144790: Stage=1425.03ft,2017-05-28 15:00,Not ranked,CHENEY RE NR CHENEY, KS 07144570: Flow=2930cfs,Stage=8.93ft,Floodstage=16.5ft,2017-05-28 15:15,Not ranked,ARKANSAS R AT MULVANE, KS 07144490: Flow=10cfs,Stage=7.52ft,2017-05-28 15:15,Not ranked,COWSKIN C AT KELLOGG ST, WICHITA, KS 07144486: Flow=0.33cfs,Stage=4.92ft,2017-05-28 16:00,Not ranked,CALFSKIN C AT 119TH ST, WICHITA, KS 07144480: Flow=9.3cfs,Stage=7.72ft,Floodstage=18ft,2017-05-28 15:30,Not ranked,COWSKIN C AT 119TH ST AT WICHITA, KS 07144470: Stage=10.91ft,2017-05-28 15:15,Not ranked,COWSKIN C AT 29TH ST NORTH OF WICHITA, KS 07144301: Flow=0.00cfs,Stage=6.49ft,2017-05-28 15:45,Not ranked,FLOODWAY AT ARKANSAS R AT WICHITA, KS 07144201: Flow=0.00cfs,Stage=2.58ft,2017-05-28 15:00,Not ranked,FLOODWAY AT L ARKANSAS R AT VALLEY CENTER, KS 07144100: Flow=169cfs,Stage=3.95ft,Floodstage=22ft,2017-05-28 15:15,Not ranked,L ARKANSAS R NR SEDGWICK, KS 07144050: Flow=14cfs,Stage=-0.64ft,Floodstage=19ft,2017-05-28 15:15,Not ranked,EMMA C AT SEDGWICK, KS 07143672: Flow=78cfs,Stage=6.59ft,Floodstage=25ft,2017-05-28 15:30,Not ranked,L ARKANSAS R AT HWY 50 NR HALSTEAD, KS 07143375: Flow=2180cfs,Stage=7.74ft,2017-05-28 15:15,Not ranked,ARKANSAS R NR MAIZE, KS 07143310: Stage=4.00ft,Floodstage=9.5ft,2017-05-28 15:15,Not ranked,COW C NR HUTCHINSON, KS 07142680: Flow=1020cfs,Stage=13.24ft,2017-05-28 15:00,Not ranked,ARKANSAS R NR NICKERSON, KS 07142019: Flow=0.59cfs,Stage=2.00ft,2017-05-28 16:00,Not ranked,CHEYENNE BOTTOMS DV NR GREAT BEND, KS 07141220: Flow=406cfs,Stage=6.76ft,2017-05-28 16:00,Not ranked,ARKANSAS R NR LARNED, KS 07141000: Flow=6.3cfs,Stage=4.14ft,2017-05-28 15:45,Not ranked,BUCKNER C AT HANSTON, KS 07140900: Flow=7.2cfs,Stage=2.97ft,2017-05-28 15:15,Not ranked,BUCKNER C NR JETMORE, KS 07140890: Flow=3.9cfs,Stage=3.17ft,2017-05-28 15:45,Not ranked,BUCKNER C BL HORSETHIEF RE NR JETMORE, KS 07140880: Stage=4.62ft,2017-05-28 15:15:00,Not ranked,Back Water,BUCKNER C AB HORSETHIEF RE NR JETMORE, KS 07139500: Stage=6.00ft,Floodstage=11ft,2017-05-28 15:00,Not ranked,ARKANSAS R AT DODGE CITY, KS 07138075: Flow=5.0cfs,2017-05-02 17:45,Stage=1.46ft,2017-05-28 15:00:00,Not ranked,FARMERS DITCH NR DEERFIELD, KS 07138070: Flow=130cfs,Stage=7.93ft,Floodstage=14ft,2017-05-28 15:45,Not ranked,ARKANSAS R AT DEERFIELD, KS 07138064: Flow=0.00cfs,Stage=1.95ft,2017-05-28 15:15,Not ranked,SOUTHSIDE DITCH RETURN NR DEERFIELD, KS 07138063: Flow=3.0cfs,2017-05-03 21:15,Stage=1.41ft,2017-05-28 15:00:00,Not ranked,SOUTHSIDE DITCH NR LAKIN, KS 07138050: Stage=2.48ft,2017-05-28 15:00:00,Not ranked,Equipment malfunction,AMAZON GREAT EASTERN DITCH NR LAKIN, KS 07138020: Flow=210cfs,Stage=6.70ft,2017-05-28 15:45,Not ranked,ARKANSAS R AT KENDALL, KS 07137010: Flow=0.00cfs,Stage=1.97ft,2017-05-28 15:45,Not ranked,FRONTIER DITCH RETURN NR COOLIDGE, KS 07134990: Flow=12cfs,Stage=3.21ft,2017-05-28 14:15,Not ranked,WILD HORSE CREEK ABOVE HOLLY, CO 06917630: Flow=5.62cfs,Stage=1.96ft,2017-05-28 15:15,Not ranked,East Drywood Creek at Prairie State Park 06917560: Flow=69.1cfs,Stage=2.76ft,Floodstage=25ft,2017-05-28 15:15,Not ranked,Marmaton River near Richards, MO 06917380: Flow=194cfs,2008-11-12 23:45,Not ranked,MARMATON R NR MARMATON, KS 06917240: Flow=22cfs,Stage=0.02ft,2017-05-28 15:00,Not ranked,MARMATON R NR UNIONTOWN, KS 06914995: Stage=918.68ft,2017-05-28 15:30,Not ranked,HILLSDALE LK NR HILLSDALE, KS 06914990: Flow=15cfs,Stage=3.63ft,2017-05-28 15:30,Not ranked,L BULL C NR SPRING HILL, KS 06914950: Flow=22cfs,Stage=2.56ft,2017-05-28 15:00,Not ranked,BIG BULL C NR EDGERTON, KS 06914500: Flow=86cfs,Stage=5.91ft,Floodstage=23ft,2017-05-28 15:30,Not ranked,POTTAWATOMIE C AT LANE, KS 06914100: Flow=52cfs,Stage=3.64ft,Floodstage=23ft,2017-05-28 15:45,Not ranked,POTTAWATOMIE C NR SCIPIO, KS 06912490: Stage=978.31ft,2017-05-28 15:45,Not ranked,POMONA LK NR QUENEMO, KS 06911490: Flow=15cfs,Stage=0.70ft,Floodstage=10ft,2017-05-28 15:30,Not ranked,SALT C AT LYNDON, KS 06910997: Stage=1038.76ft,2017-05-28 15:30,Not ranked,MELVERN LK NR MELVERN, KS 06893578: Flow=438cfs,Stage=6.92ft,Floodstage=33ft,2017-05-28 15:30,Not ranked,Blue River at Stadium Drive in Kansas City, MO 06893562: Stage=4.50ft,2017-05-28 15:45,Not ranked,Brush Creek at Rockhill Road in Kansas City, MO 06893557: Flow=3.03cfs,Stage=35.63ft,Floodstage=47ft,2017-05-28 15:15,Not ranked,Brush Creek at Ward Parkway in Kansas City, MO 06893400: Stage=83.24ft,2017-05-28 15:30,Not ranked,Indian Creek at 103rd St in Kansas City, MO 06893390: Flow=69cfs,Stage=10.50ft,Floodstage=20ft,2017-05-28 15:30,Not ranked,INDIAN C AT STATE LINE RD, LEAWOOD, KS 06893350: Flow=17cfs,Stage=2.16ft,2017-05-28 15:15,Not ranked,TOMAHAWK C NR OVERLAND PARK, KS 06893150: Flow=142cfs,Stage=25.54ft,Floodstage=35ft,2017-05-28 16:00,Not ranked,Blue River at Blue Ridge Blvd Ext in KC, MO 06893100: Flow=99cfs,Stage=5.92ft,2017-05-28 15:30,Not ranked,BLUE R AT KENNETH RD, OVERLAND PARK, KS 06892950: Stage=23.17ft,Floodstage=33ft,2017-05-28 15:45,Not ranked,KANSAS R AT KANSAS CITY, KS 06892518: Flow=33500cfs,Stage=13.92ft,2017-05-28 15:45,Not ranked,KANSAS R NR LAKE QUIVIRA, KS 06892513: Flow=67cfs,Stage=49.16ft,2017-05-28 15:30,Not ranked,MILL C AT JOHNSON DRIVE, SHAWNEE, KS 06892495: Flow=337cfs,Stage=58.64ft,2017-05-28 15:45,Not ranked,CEDAR C NR DESOTO, KS 06892494: Stage=3.46ft,2017-05-28 16:00,Not ranked,CAMP C AT 95TH ST NR DESOTO, KS 06892493: Stage=77.17ft,2017-05-28 16:00,Not ranked,CEDAR C AT 95TH ST NR DESOTO, KS 06892360: Flow=114cfs,Stage=5.85ft,2017-05-28 15:30,Not ranked,KILL C AT 95TH ST NR DESOTO, KS 06891850: Flow=354cfs,Stage=5.37ft,Floodstage=17ft,2017-05-28 15:30,Not ranked,STRANGER C AT EASTON, KS 06891810: Flow=199cfs,2015-06-09 23:45,Not ranked,STRANGER C NR POTTER, KS 06891478: Stage=877.60ft,2017-05-28 15:00,Not ranked,CLINTON LK NR LAWRENCE, KS 06891260: Flow=45cfs,Stage=4.17ft,2017-05-28 15:30,Not ranked,WAKARUSA R NR RICHLAND, KS 06891200: Stage=3.32ft,Floodstage=15ft,2017-05-28 15:15,Not ranked,WAKARUSA R AT WAKARUSA, KS 06891080: Flow=27300cfs,Stage=-1.45ft,Floodstage=18ft,2017-05-28 15:45,Not ranked,KANSAS R AT LAWRENCE, KS 06890900: Stage=35.20ft,2017-05-28 15:30:00,Not ranked,Maintenance in progress,DELAWARE R AT PERRY, KS 06890898: Stage=897.18ft,2017-05-28 15:30,Not ranked,PERRY LK NR PERRY, KS 06889630: Flow=13cfs,Stage=4.84ft,Floodstage=24ft,2017-05-28 15:15,Not ranked,SHUNGANUNGA C AT TOPEKA, KS 06889585: Stage=5.22ft,Floodstage=15ft,2017-05-28 15:15,Not ranked,SHUNGANUNGA C AT GAGE BLVD, TOPEKA, KS 06888990: Flow=28400cfs,Stage=11.74ft,2017-05-28 15:30,Not ranked,KANSAS R AT TOPEKA WATER PLANT, KS 06888700: Stage=9.90ft,Floodstage=25ft,2017-05-28 15:30,Not ranked,CROSS C AT ROSSVILLE, KS 06888300: Flow=144cfs,Stage=9.34ft,Floodstage=27ft,2017-05-28 16:00,Not ranked,ROCK C NR LOUISVILLE, KS 06887500: Flow=25700cfs,Stage=12.15ft,Floodstage=19ft,2017-05-28 15:30,Not ranked,KANSAS R AT WAMEGO, KS 06886900: Stage=1091.39ft,2017-05-28 15:00,Not ranked,TUTTLE C LK NR MANHATTAN, KS 06886850: Stage=5.26ft,2017-05-28 15:30,Not ranked,MILL C NR RILEY, KS 06886500: Flow=131cfs,Stage=1.71ft,Floodstage=16ft,2017-05-28 15:15,Not ranked,FANCY C AT WINKLER, KS 06884700: Stage=19.86ft,Floodstage=26ft,2017-05-28 15:15,Not ranked,BIG BLUE R AT BLUE RAPIDS, KS 06879820: Stage=13.92ft,Floodstage=18ft,2017-05-28 16:00,Not ranked,KANSAS R AT MANHATTAN, KS 06879815: Stage=3.19ft,2017-05-28 16:00,Not ranked,WILDCAT C AT SETH CHILDS RD, MANHATTAN, KS 06879810: Flow=50cfs,Stage=3.18ft,Floodstage=14ft,2017-05-28 15:15,Not ranked,WILDCAT C AT SCENIC DRIVE, MANHATTAN, KS 06879805: Stage=6.57ft,2017-05-28 15:00,Not ranked,WILDCAT C AT KEATS, KS 06878600: Flow=107cfs,Stage=6.52ft,Floodstage=21ft,2017-05-28 15:15,Not ranked,LYON C NR JUNCTION CITY, KS 06876440: Flow=1950cfs,Stage=10.28ft,Floodstage=26ft,2017-05-28 15:15,Not ranked,SOLOMON R NR MINNEAPOLIS, KS 06876070: Stage=15.45ft,2017-05-28 15:15,Not ranked,SOLOMON R NR SIMPSON, KS 06870300: Flow=44cfs,Stage=20.60ft,2017-05-28 15:15,Not ranked,GYPSUM C NR GYPSUM, KS 06870200: Stage=17.05ft,Floodstage=27ft,2017-05-28 15:45,Not ranked,SMOKY HILL R AT NEW CAMBRIA, KS 06869950: Flow=94cfs,Stage=4.68ft,Floodstage=24ft,2017-05-28 15:00,Not ranked,MULBERRY C NR SALINA, KS 06868850: Flow=1180cfs,Stage=21.67ft,Floodstage=30ft,2017-05-28 15:45,Not ranked,SALINE R AT LINCOLN, KS 06868100: Stage=1519.48ft,2017-05-28 15:30,Not ranked,WILSON LK NR WILSON, KS 06867500: Flow=363cfs,Stage=12.19ft,2017-05-28 15:30,Not ranked,PARADISE C NR PARADISE, KS 06866900: Flow=336cfs,Stage=6.28ft,Floodstage=13ft,2017-05-28 15:00,Not ranked,SALINE R NR WAKEENEY, KS 06865000: Stage=1473.18ft,2017-05-28 15:30,Not ranked,KANOPOLIS LK NR KANOPOLIS, KS 06864050: Flow=58cfs,2011-06-08 23:45,Not ranked,SMOKY HILL R NR BUNKER HILL, KS 06863420: Flow=13cfs,Stage=1.97ft,2017-05-28 15:15,Not ranked,BIG C NR ELLIS, KS 06863000: Flow=27cfs,Stage=2.35ft,2017-05-28 16:00,Not ranked,SMOKY HILL R AT PFEIFER, KS 06861500: Stage=2119.90ft,2017-05-28 15:15,Not ranked,CEDAR BLUFF RE NR ELLIS, KS 06860900: Flow=0.35cfs,Stage=7.46ft,2017-05-28 15:30,Not ranked,HACKBERRY C NR TREGO CENTER, KS 06857050: Stage=1149.56ft,2017-05-28 15:30,Not ranked,MILFORD LK NR JUNCTION CITY, KS 06855850: Flow=516cfs,Stage=9.15ft,2017-05-28 15:15,Not ranked,BUFFALO C 4 MI E OF JAMESTOWN, KS 06854000: Stage=4.86ft,2017-05-28 15:45,Not ranked,WHITE ROCK C AT LOVEWELL, KS 06853020: Flow=132cfs,Stage=4.64ft,Floodstage=11ft,2017-05-28 15:30,Not ranked,Republican River at Guide Rock, Nebr. 06846500: Flow=0.00cfs,Stage=2.78ft,Floodstage=16ft,2017-05-28 15:00,Not ranked,BEAVER C AT CEDAR BLUFFS, KS 06845110: Flow=4.0cfs,Stage=5.49ft,Floodstage=17ft,2017-05-28 15:30,Not ranked,SAPPA C NR LYLE, KS 06827000: Flow=33cfs,Stage=4.56ft,2017-05-28 15:45,Not ranked,SF REPUBLICAN R NR CO-KS ST LINE, KS 06820475: Stage=13.76ft,Floodstage=20ft,2017-05-28 15:00,Not ranked,MISSOURI R AT LEAVENWORTH, KS 06818300: Stage=18.10ft,Floodstage=22ft,2017-05-28 16:00,Not ranked,MISSOURI R AT ATCHISON, KS Go to WaterWatch (offsite) for a larger map with additional options
USGS Home Water Resources Biology Geography Geology Geospatial

Accessibility FOIA Privacy Policies and Notices

Take Pride in America logo USA.gov logo U.S. Department of the Interior | U.S. Geological Survey
Page Contact Information: GS-W-KS_info@usgs.gov
Page Last Modified: 2017-04-18 11:00:17 CDT